Hot Springs, VA

3:14 AM EDT on September 28, 2016 (GMT -0400)
Ingalls

Weather History for KHSP - December, 2004

Change the Weather History Date:

Monday, December 27, 2004

  Actual Average Record
Temperature  
Mean Temperature 14 °F -  
Max Temperature 21 °F 33 °F 68 °F (2015)
Min Temperature 8 °F 20 °F 8 °F (2004)
Degree Days  
Heating Degree Days 50    
Moisture  
Dew Point 6 °F    
Average Humidity 70    
Maximum Humidity 92    
Minimum Humidity 46    
Precipitation  
Precipitation 0.00 in - - ()
Sea Level Pressure  
Sea Level Pressure 30.30 in    
Wind  
Wind Speed 18 mph (WNW)    
Max Wind Speed 25 mph    
Max Gust Speed 40 mph    
Visibility 10 miles    
Events      
Averages and records for this station are not official NWS values.
T = Trace of Precipitation, MM = Missing Value Source: NWS Daily Summary

Daily Weather History Graph

Daily Weather History Graph

Search for Another Location

Airport or City:

Trip Planner

Search our weather history database for the weather conditions in past years. The results will help you decide how hot, cold, wet, or windy it might be!

Date:

Astronomy

Dec. 27, 2004 Rise Set
Actual Time 7:34 AM EST 5:07 PM EST
Civil Twilight 7:04 AM EST 5:36 PM EST
Nautical Twilight 6:31 AM EST 6:09 PM EST
Astronomical Twilight 5:59 AM EST 6:41 PM EST
Moon 5:54 PM EST (12/27) 8:42 AM EST (12/27)
Length of Visible Light 10h 31m
Length of Day
9h 33m
Full, 99% of the Moon is Illuminated
Dec 27
Full
Jan 3
Last Quarter
Jan 10
New
Jan 17
First Quarter
Jan 25
Full

Hourly Weather History & Observations

Time (EST) Temp. Windchill Dew Point Humidity Pressure Visibility Wind Dir Wind Speed Gust Speed Precip Events Conditions
12:00 AM 17.6 °F 1.3 °F 14.0 °F 86% 30.08 in 7.0 mi WNW 19.6 mph 28.8 mph N/A   Overcast
12:20 AM 15.8 °F -3.1 °F 12.2 °F 86% 30.08 in 10.0 mi WNW 25.3 mph 34.5 mph N/A   Mostly Cloudy
1:00 AM 15.8 °F -1.9 °F 10.4 °F 79% 30.08 in 10.0 mi WNW 21.9 mph 33.4 mph N/A   Mostly Cloudy
2:00 AM 14.0 °F -4.3 °F 8.6 °F 79% 30.11 in 5.0 mi WNW 21.9 mph 32.2 mph N/A   Overcast
2:20 AM 12.2 °F -4.8 °F 8.6 °F 85% 30.11 in 10.0 mi WNW 17.3 mph 39.1 mph N/A   Overcast
2:40 AM 12.2 °F -6.3 °F 8.6 °F 85% 30.12 in 10.0 mi WNW 20.7 mph 38.0 mph N/A   Overcast
3:00 AM 12.2 °F -6.7 °F 6.8 °F 79% 30.13 in 10.0 mi WNW 21.9 mph 29.9 mph N/A   Mostly Cloudy
3:20 AM 12.2 °F -4.8 °F 8.6 °F 85% 30.14 in 10.0 mi WNW 17.3 mph 31.1 mph N/A   Mostly Cloudy
4:00 AM 10.4 °F -7.7 °F 8.6 °F 92% 30.14 in 10.0 mi NW 18.4 mph 40.3 mph N/A   Overcast
4:20 AM 10.4 °F -9.5 °F 6.8 °F 85% 30.15 in 10.0 mi WNW 23.0 mph 32.2 mph N/A   Overcast
5:00 AM 10.4 °F -7.7 °F 6.8 °F 85% 30.15 in 10.0 mi NW 18.4 mph 27.6 mph N/A   Overcast
5:20 AM 10.4 °F -9.5 °F 8.6 °F 92% 30.17 in 10.0 mi WNW 23.0 mph 31.1 mph N/A   Overcast
5:40 AM 10.4 °F -9.1 °F 8.6 °F 92% 30.18 in 10.0 mi WNW 21.9 mph 32.2 mph N/A   Overcast
6:00 AM 10.4 °F -9.1 °F 6.8 °F 85% 30.19 in 10.0 mi WNW 21.9 mph 31.1 mph N/A   Overcast
6:20 AM 10.4 °F -8.6 °F 8.6 °F 92% 30.21 in 10.0 mi WNW 20.7 mph 29.9 mph N/A   Overcast
6:40 AM 10.4 °F -9.1 °F 6.8 °F 85% 30.21 in 10.0 mi WNW 21.9 mph 29.9 mph N/A   Overcast
7:00 AM 10.4 °F -8.2 °F 6.8 °F 85% 30.23 in 10.0 mi NW 19.6 mph 28.8 mph N/A   Mostly Cloudy
7:20 AM 8.6 °F -10.0 °F 6.8 °F 92% 30.24 in 10.0 mi WNW 18.4 mph 28.8 mph N/A   Scattered Clouds
7:40 AM 8.6 °F -10.5 °F 6.8 °F 92% 30.24 in 10.0 mi NW 19.6 mph 28.8 mph N/A   Scattered Clouds
8:00 AM 10.4 °F -6.0 °F 6.8 °F 85% 30.26 in 10.0 mi WNW 15.0 mph 24.2 mph N/A   Scattered Clouds
8:20 AM 10.4 °F -6.6 °F 6.8 °F 85% 30.27 in 10.0 mi NW 16.1 mph 23.0 mph N/A   Scattered Clouds
8:40 AM 10.4 °F -7.7 °F 6.8 °F 85% 30.29 in 10.0 mi NW 18.4 mph 23.0 mph N/A   Scattered Clouds
9:00 AM 10.4 °F -8.2 °F 6.8 °F 85% 30.30 in 10.0 mi NW 19.6 mph 27.6 mph N/A   Clear
10:00 AM 14.0 °F -2.0 °F 8.6 °F 79% 30.35 in 10.0 mi WNW 16.1 mph 28.8 mph N/A   Scattered Clouds
10:20 AM 14.0 °F -2.0 °F 8.6 °F 79% 30.35 in 10.0 mi NW 16.1 mph 25.3 mph N/A   Clear
11:00 AM 15.8 °F 2.7 °F 6.8 °F 68% 30.35 in 10.0 mi NW 11.5 mph 23.0 mph N/A   Clear
11:20 AM 15.8 °F 0.9 °F 6.8 °F 68% 30.36 in 10.0 mi WNW 15.0 mph 20.7 mph N/A   Clear
12:00 PM 17.6 °F 2.7 °F 6.8 °F 63% 30.36 in 10.0 mi WNW 16.1 mph - N/A   Clear
1:00 PM 21.2 °F 7.8 °F 6.8 °F 54% 30.36 in 10.0 mi WNW 15.0 mph - N/A   Clear
1:20 PM 21.2 °F 7.8 °F 6.8 °F 54% 30.36 in 10.0 mi NW 15.0 mph 19.6 mph N/A   Clear
2:00 PM 21.2 °F 9.5 °F 5.0 °F 50% 30.35 in 10.0 mi WNW 11.5 mph 20.7 mph N/A   Clear
2:20 PM 21.2 °F 7.8 °F 6.8 °F 54% 30.36 in 10.0 mi West 15.0 mph - N/A   Clear
2:40 PM 21.2 °F 8.3 °F 5.0 °F 50% 30.37 in 10.0 mi WNW 13.8 mph 21.9 mph N/A   Clear
3:00 PM 21.2 °F 7.3 °F 6.8 °F 54% 30.36 in 10.0 mi WNW 16.1 mph 24.2 mph N/A   Clear
3:20 PM 21.2 °F 6.8 °F 5.0 °F 50% 30.36 in 10.0 mi WNW 17.3 mph 21.9 mph N/A   Clear
4:00 PM 21.2 °F 8.9 °F 3.2 °F 46% 30.37 in 10.0 mi WNW 12.7 mph 19.6 mph N/A   Clear
4:20 PM 21.2 °F 9.5 °F 3.2 °F 46% 30.37 in 10.0 mi WNW 11.5 mph 17.3 mph N/A   Clear
5:00 PM 19.4 °F 6.6 °F 3.2 °F 49% 30.38 in 10.0 mi WNW 12.7 mph - N/A   Clear
5:20 PM 19.4 °F 6.6 °F 1.4 °F 46% 30.38 in 10.0 mi WNW 12.7 mph - N/A   Clear
5:40 PM 19.4 °F 6.6 °F 1.4 °F 46% 30.40 in 10.0 mi WNW 12.7 mph 18.4 mph N/A   Clear
6:00 PM 19.4 °F 5.5 °F 1.4 °F 46% 30.40 in 10.0 mi WNW 15.0 mph 19.6 mph N/A   Clear
6:20 PM 17.6 °F 4.3 °F 3.2 °F 53% 30.41 in 10.0 mi WNW 12.7 mph - N/A   Clear
7:00 PM 17.6 °F 3.7 °F 1.4 °F 49% 30.42 in 10.0 mi NW 13.8 mph - N/A   Clear
8:00 PM 15.8 °F 0.3 °F 3.2 °F 58% 30.43 in 10.0 mi WNW 16.1 mph - N/A   Clear
8:20 PM 15.8 °F -0.2 °F 3.2 °F 58% 30.43 in 10.0 mi WNW 17.3 mph - N/A   Clear
9:00 PM 15.8 °F 2.1 °F 3.2 °F 58% 30.43 in 10.0 mi WNW 12.7 mph - N/A   Clear
9:20 PM 15.8 °F 2.7 °F 3.2 °F 58% 30.43 in 10.0 mi WNW 11.5 mph - N/A   Clear
9:40 PM 14.0 °F 0.5 °F 3.2 °F 62% 30.43 in 10.0 mi WNW 11.5 mph - N/A   Clear
10:00 PM 14.0 °F 0.5 °F 5.0 °F 67% 30.43 in 10.0 mi WNW 11.5 mph - N/A   Clear
10:20 PM 14.0 °F 1.2 °F 5.0 °F 67% 30.44 in 10.0 mi West 10.4 mph - N/A   Clear
11:00 PM 14.0 °F 6.5 °F 3.2 °F 62% 30.45 in 10.0 mi West 4.6 mph - N/A   Clear
11:20 PM 15.8 °F - 5.0 °F 62% 30.45 in 10.0 mi Calm Calm - N/A   Clear
11:40 PM 14.0 °F 8.2 °F 3.2 °F 62% 30.44 in 10.0 mi West 3.5 mph - N/A   Clear